Regional Weather Roundup
Issued by NWS

Home | Current Version | Previous Version | Graphics & Text | Print | Product List | Glossary On
Versions: 1 2 3 4 5 6 7 8 9 10 11 12 13 14 15 16 17 18 19 20 21 22 23 24 25 26 27 28 29 30 31 32 33 34 35 36 37 38 39 40 41 42 43 44 45 46 47 48 49 50
000
ASUS45 KBOU 261107
RWRCO

WEATHER ROUNDUP FOR COLORADO
NATIONAL WEATHER SERVICE DENVER/BOULDER CO
400 AM MST THU FEB 26 2015

NOTE: "FAIR" INDICATES FEW OR NO CLOUDS BELOW 12000 FEET WITH NO
SIGNIFICANT WEATHER AND/OR OBSTRUCTIONS TO VISIBILITY.

COZ001>005-013-030-031-261200-
...NORTHWEST COLORADO...

CITY           SKY/WX    TMP DP  RH WIND       PRES   REMARKS
CRAIG          NOT AVBL
HAYDEN         PTCLDY    14   9  79 CALM      30.02F
MEEKER         PTCLDY    16  10  77 E3        30.02F
MOUNT WERNER   NOT AVBL
STEAMBOAT SPGS CLOUDY    15  13  92 CALM      30.01F
WALDEN         CLOUDY    10   5  79 CALM      29.98S
$$

COZ006>008-011-261200-
...WEST CENTRAL VALLEYS...

CITY           SKY/WX    TMP DP  RH WIND       PRES   REMARKS
GRAND JUNCTION CLEAR     20  16  84 E3        30.03S
MONTROSE       CLEAR     18  14  84 S9        30.05F WCI   7
EAGLE          PTCLDY    18  16  93 E7        30.05S WCI   8
RIFLE          CLEAR     20  14  77 E6        30.05F WCI  12
DELTA          MOCLDY    29  26  90 CALM      30.06R
NUCLA          CLEAR     23  18  80 E10       30.06S WCI  12
$$

COZ017>023-064>068-261200-
...SOUTHWEST COLORADO...

CITY           SKY/WX    TMP DP  RH WIND       PRES   REMARKS
DURANGO        CLEAR     15  14  95 VRB3      29.96S
CORTEZ         CLEAR     21  18  88 E6        30.00S WCI  13
PAGOSA SPRINGS PTCLDY    13  12  94 CALM      29.97R FOG
TELLURIDE      PTCLDY    15  13  91 CALM      29.99S
WOLF CREEK PAS PTCLDY     7   3  85 NW6       29.93S WCI  -3
$$

COZ009-010-012-014-032>034-037-058>063-261200-
...CENTRAL COLORADO...

CITY           SKY/WX    TMP DP  RH WIND       PRES   REMARKS
ASPEN          MOCLDY    13   9  84 SW6       29.98S WCI   4
BUENA VISTA    MOCLDY     8   6  89 CALM      29.98S
COPPER MTN     CLOUDY     7   0  72 W21G26    29.84F WCI -13
BERTHOUD PASS  MOCLDY    -2  -8  78 W20       29.82S HAZE    WCI -25
COTTONWOOD PAS LGT SNOW  16  10  79 CALM      29.92S
GUNNISON       PTCLDY    12   5  73 CALM      30.01R
KREMMLING      PTCLDY    10   5  79 E5        30.01F WCI   2
LEADVILLE      LGT SNOW   4   0  83 NE3       29.91S FOG
MONARCH PASS   CLOUDY     9   3  78 MISG      29.94S
SALIDA         MOCLDY    18  15  86 CALM      30.07R
SUNLIGHT       PTCLDY   N/A N/A N/A CALM        N/A
WILKERSON PASS LGT SNOW N/A N/A N/A SW5       29.89S
$$

COZ069>075-261200-
...SAN LUIS VALLEY/SANGRE DE CRISTO MOUNTAINS...

CITY           SKY/WX    TMP DP  RH WIND       PRES   REMARKS
ALAMOSA        PTCLDY    17  10  74 E6        29.96S WCI   9
LA VETA PASS   LGT SNOW   5   1  85 MISG      29.91S VSB 1
SAGUACHE       PTCLDY    18  16  93 SE6       29.97S WCI   9
$$

COZ035-036-038>040-261200-
...NORTHERN COLORADO FRONT RANGE...

CITY           SKY/WX    TMP DP  RH WIND       PRES   REMARKS
DENVER INTL AP PTCLDY    10   5  80 NE6       30.15S WCI   0
DMNS CITY PARK   N/A     13  11  92 E3        30.15F
AURORA         MOCLDY    10   5  79 NE3       30.14F
FRONT RANGE AP NOT AVBL
ERIE MUNI ARPT FLURRIES   8   6  91 CALM      30.17F
BOULDER MUN AP LGT SNOW  18  14  86 CALM      30.16S
CENTENNIAL     LGT SNOW  11   7  84 CALM      30.12F FOG
BROOMFIELD     LGT SNOW  14  12  92 SE5       30.14F WCI   6
FORT COLLINS   CLOUDY    18   9  68 SE10      30.18S WCI   6
LONGMONT       FLURRIES  19  14  82 S3        30.20S
$$

COZ041-046-047-076>085-087-088-261200-
...PIKES PEAK/PALMER DIVIDE AND SOUTHERN FOOTHILLS...

CITY           SKY/WX    TMP DP  RH WIND       PRES   REMARKS
COLO. SPRINGS  LGT SNOW  16   8  71 N10       30.10S FOG     WCI   4
A. F. ACADEMY  MOCLDY    12   5  75 N7        30.07F WCI   1
ELLICOTT       NOT AVBL
FALCON         CLOUDY    12   6  77 N7        30.06S WCI   1
FORT CARSON    MOCLDY    17   9  70 N13       30.09S WCI   4
LIMON          CLOUDY    10   7  87 N3        30.14S
MONUMENT HILL  LGT SNOW   9   5  85 N7        30.05S WCI  -3
TRINIDAD       LGT SNOW  23  20  88 SW6       30.08R FOG     WCI  16
$$

COZ042>045-048>051-090-091-261200-
...NORTHEAST COLORADO...

CITY           SKY/WX    TMP DP  RH WIND       PRES   REMARKS
GREELEY ARPT   MOCLDY    16   7  67 E9        30.19F WCI   4
AKRON          FLURRIES  12   9  87 E3        30.20S
BURLINGTON     CLOUDY    15   8  73 NE14      30.21S WCI   0
WRAY           CLOUDY    17   6  62 N14       30.28R WCI   3
STERLING       CLOUDY    14  10  85 NE5       30.25S WCI   6
HOLYOKE        NOT AVBL
FORT MORGAN    LGT SNOW  15  10  81 E3        30.22S
$$

COZ086-089-092>099-261200-
...SOUTHEAST COLORADO...

CITY           SKY/WX    TMP DP  RH WIND       PRES   REMARKS
PUEBLO         LGT SNOW  21  18  88 NE13      30.16R FOG     WCI   9
LA JUNTA       LGT SNOW  20  16  84 NE17      30.19R FOG     WCI   5
LAMAR          LGT SNOW  19  15  84 NE13      30.22R FOG     WCI   6
SPRINGFIELD      N/A     18  15  88 NE16      30.16R WCI   3
$$


USA.gov is the U.S. government's official web portal to all federal, state and local government web resources and services.